Weather reports worldwide

Advertisment
Bonifati, Italy (16337): temperature & dewpoint: 15.01.2018 04:00:00 - 21.01.2018 04:00:00 (CET)Bonifati, Italy (16337): wind speed: 15.01.2018 04:00:00 - 21.01.2018 04:00:00 (CET)Bonifati, Italy (16337): wind direction: 15.01.2018 04:00:00 - 21.01.2018 04:00:00 (CET)Bonifati, Italy (16337): reduced air pressure: 15.01.2018 04:00:00 - 21.01.2018 04:00:00 (CET)Bonifati, Italy (16337): visibility: 15.01.2018 04:00:00 - 21.01.2018 04:00:00 (CET)
Date & Time tt [°C] td [°C] ff [km/h] ff [kn] dd ppp [hPa] vv [km]
21.01.2018 04:00:00 - - - - - - -
21.01.2018 03:00:00 - - - - - - -
21.01.2018 02:00:00 - - - - - - -
21.01.2018 01:00:00 - - - - - - -
21.01.2018 00:00:00 - - - - - - -
20.01.2018 23:00:00 - - - - - - -
20.01.2018 22:00:00 - - - - - - -
20.01.2018 21:00:00 - - - - - - -
20.01.2018 20:00:00 - - - - - - -
20.01.2018 19:00:00 9,4 7,5 16 9 W 1012,0 18
20.01.2018 18:00:00 - - - - - - -
20.01.2018 17:00:00 - - - - - - -
20.01.2018 16:00:00 10,4 8,5 13 7 SSW 1011,1 18
20.01.2018 15:00:00 - - - - - - -
20.01.2018 14:00:00 - - - - - - -
20.01.2018 13:00:00 11,0 6,9 22 12 SW 1011,7 18
20.01.2018 12:00:00 - - - - - - -
20.01.2018 11:00:00 - - - - - - -
20.01.2018 10:00:00 10,0 7,6 21 11 SSW 1012,0 13
20.01.2018 09:00:00 - - - - - - -
20.01.2018 08:00:00 - - - - - - -
20.01.2018 07:00:00 9,0 6,4 22 12 SSW 1012,0 16
20.01.2018 06:00:00 - - - - - - -
20.01.2018 05:00:00 - - - - - - -
20.01.2018 04:00:00 - - - - - - -
20.01.2018 03:00:00 - - - - - - -
20.01.2018 02:00:00 - - - - - - -
20.01.2018 01:00:00 - - - - - - -
20.01.2018 00:00:00 - - - - - - -
19.01.2018 23:00:00 - - - - - - -
19.01.2018 22:00:00 - - - - - - -
19.01.2018 21:00:00 - - - - - - -
19.01.2018 20:00:00 - - - - - - -
19.01.2018 19:00:00 9,0 7,3 9 5 SW 1014,2 16
19.01.2018 18:00:00 - - - - - - -
19.01.2018 17:00:00 - - - - - - -
19.01.2018 16:00:00 9,4 8,3 18 10 W 1014,5 16
19.01.2018 15:00:00 - - - - - - -
19.01.2018 14:00:00 - - - - - - -
19.01.2018 13:00:00 10,4 9,0 16 9 SW 1015,3 18
19.01.2018 12:00:00 - - - - - - -
19.01.2018 11:00:00 - - - - - - -
19.01.2018 10:00:00 9,2 8,0 18 10 SW 1017,1 18
19.01.2018 09:00:00 - - - - - - -
19.01.2018 08:00:00 - - - - - - -
19.01.2018 07:00:00 8,0 6,5 16 9 SW 1017,2 18
19.01.2018 06:00:00 - - - - - - -
19.01.2018 05:00:00 - - - - - - -
19.01.2018 04:00:00 - - - - - - -
19.01.2018 03:00:00 - - - - - - -
19.01.2018 02:00:00 - - - - - - -
19.01.2018 01:00:00 - - - - - - -
19.01.2018 00:00:00 - - - - - - -
18.01.2018 23:00:00 - - - - - - -
18.01.2018 22:00:00 - - - - - - -
18.01.2018 21:00:00 - - - - - - -
18.01.2018 20:00:00 - - - - - - -
18.01.2018 19:00:00 7,2 -0,5 13 7 WNW 1020,3 18
18.01.2018 18:00:00 - - - - - - -
18.01.2018 17:00:00 - - - - - - -
18.01.2018 16:00:00 9,6 -7,1 15 8 SSW 1019,5 18
18.01.2018 15:00:00 - - - - - - -
18.01.2018 14:00:00 - - - - - - -
18.01.2018 13:00:00 8,2 -12,3 13 7 W 1020,3 18
18.01.2018 12:00:00 - - - - - - -
18.01.2018 11:00:00 - - - - - - -
18.01.2018 10:00:00 6,2 -13,4 22 12 WNW 1019,9 18
18.01.2018 09:00:00 - - - - - - -
18.01.2018 08:00:00 - - - - - - -
18.01.2018 07:00:00 5,0 -9,2 24 13 WNW 1017,2 18
18.01.2018 06:00:00 - - - - - - -
18.01.2018 05:00:00 - - - - - - -
18.01.2018 04:00:00 - - - - - - -
18.01.2018 03:00:00 - - - - - - -
18.01.2018 02:00:00 - - - - - - -
18.01.2018 01:00:00 - - - - - - -
18.01.2018 00:00:00 - - - - - - -
17.01.2018 23:00:00 - - - - - - -
17.01.2018 22:00:00 - - - - - - -
17.01.2018 21:00:00 - - - - - - -
17.01.2018 20:00:00 - - - - - - -
17.01.2018 19:00:00 10,0 6,2 54 29 WNW 1006,0 15
17.01.2018 18:00:00 - - - - - - -
17.01.2018 17:00:00 - - - - - - -
17.01.2018 16:00:00 10,6 7,8 54 29 WSW 1005,5 0,1
17.01.2018 15:00:00 - - - - - - -
17.01.2018 14:00:00 - - - - - - -
17.01.2018 13:00:00 10,0 7,3 37 20 WSW 1007,9 0,1
17.01.2018 12:00:00 - - - - - - -
17.01.2018 11:00:00 - - - - - - -
17.01.2018 10:00:00 10,0 7,2 50 27 WSW 1009,9 10
17.01.2018 09:00:00 - - - - - - -
17.01.2018 08:00:00 - - - - - - -
17.01.2018 07:00:00 9,6 6,9 42 23 WSW 1011,5 10
17.01.2018 06:00:00 - - - - - - -
17.01.2018 05:00:00 - - - - - - -
17.01.2018 04:00:00 - - - - - - -
17.01.2018 03:00:00 - - - - - - -
17.01.2018 02:00:00 - - - - - - -
17.01.2018 01:00:00 - - - - - - -
17.01.2018 00:00:00 - - - - - - -
16.01.2018 23:00:00 - - - - - - -
16.01.2018 22:00:00 - - - - - - -
16.01.2018 21:00:00 - - - - - - -
16.01.2018 20:00:00 - - - - - - -
16.01.2018 19:00:00 9,0 6,8 39 21 W 1016,4 15
16.01.2018 18:00:00 - - - - - - -
16.01.2018 17:00:00 - - - - - - -
16.01.2018 16:00:00 9,0 6,6 39 21 WSW 1017,4 15
16.01.2018 15:00:00 - - - - - - -
16.01.2018 14:00:00 - - - - - - -
16.01.2018 13:00:00 7,8 5,6 28 15 W 1019,2 14
16.01.2018 12:00:00 - - - - - - -
16.01.2018 11:00:00 - - - - - - -
16.01.2018 10:00:00 8,2 6,2 24 13 WSW 1019,7 15
16.01.2018 09:00:00 - - - - - - -
16.01.2018 08:00:00 - - - - - - -
16.01.2018 07:00:00 7,6 5,2 9 5 NW 1019,5 13
16.01.2018 06:00:00 - - - - - - -
16.01.2018 05:00:00 - - - - - - -
16.01.2018 04:00:00 - - - - - - -
16.01.2018 03:00:00 - - - - - - -
16.01.2018 02:00:00 - - - - - - -
16.01.2018 01:00:00 - - - - - - -
16.01.2018 00:00:00 - - - - - - -
15.01.2018 23:00:00 - - - - - - -
15.01.2018 22:00:00 - - - - - - -
15.01.2018 21:00:00 - - - - - - -
15.01.2018 20:00:00 - - - - - - -
15.01.2018 19:00:00 8,6 7,4 11 6 SSW 1021,0 15
15.01.2018 18:00:00 - - - - - - -
15.01.2018 17:00:00 - - - - - - -
15.01.2018 16:00:00 9,4 6,0 2 1 S 1021,0 15
15.01.2018 15:00:00 - - - - - - -
15.01.2018 14:00:00 - - - - - - -
15.01.2018 13:00:00 12,4 5,1 2 1 SW 1021,4 18
15.01.2018 12:00:00 - - - - - - -
15.01.2018 11:00:00 - - - - - - -
15.01.2018 10:00:00 9,4 2,3 11 6 S 1021,8 20
15.01.2018 09:00:00 - - - - - - -
15.01.2018 08:00:00 - - - - - - -
15.01.2018 07:00:00 8,4 2,6 0 0 N 1021,6 18
15.01.2018 06:00:00 - - - - - - -
15.01.2018 05:00:00 - - - - - - -
15.01.2018 04:00:00 - - - - - - -

tt = temperature
td = dewpoint
ff = wind speed
dd = wind direction
ppp = reduced air pressure
vv = visibility

Next stations